Location: Carr Mill
(33.2054°N, 85.9439°W)
Time: 01:14:32
(UTC+00:00)

STARLINK-2732 - Pass Details

Date: 28 October 2021
Orbit: 545 x 549 km, 53.1° (Epoch: 07 December)

Event Time Altitude Azimuth Distance (km) Brightness Sun altitude
Exits shadow 10:59:23 21° 277° (W) 1,263 4.8 -13.0°
Maximum altitude 11:01:16 30° 322° (NW) 991 4.5 -12.6°
Drops below altitude 10° 11:04:56 10° 24° (NNE) 1,817 6.5 -11.9°
Sets 11:07:23 0° 36° (NE) 2,713 7.5 -11.4°
